User: anonymous   Login
Location: Unspecified
(0.0000°N, 0.0000°E)
Time: 21:48:25
(UTC+00:00)
Language:

UHF F/O F4 - Orbit

View from above orbital plane
View from above orbital plane
View from above satellite
View from above satellite

Ground track
Ground track

The orbit data is extracted from the following two-line orbital elements,

1 23467U 95003A   15083.86542916 0.00000000  00000-0  00000-0 0    00
2 23467   8.7521  33.8773 0007707 262.7003  97.2191  1.00270000    08
Epoch (UTC): 24 March 2015 20:46:13
Eccentricity: 0.0007707
inclination: 8.7521°
perigee height: 35754 km
apogee height: 35819 km
right ascension of ascending node: 33.8773°
argument of perigee: 262.7003°
revolutions per day: 1.00270000
mean anomaly at epoch: 97.2191°
orbit number at epoch: 0

The dashed part of the orbit path shows where the satellite is in the earth's shadow,  

DLR